Theta_e
315 316 316 316 314 315 315 317 315 314 313 314 316 317 320 321 318 313 304 308 314 320 316 311 310 310 311 306 307 306 294 292 292 293 295 299 298 301 303 301 302 304 304 307 309
314 315 315 315 314 314 315 315 315 314 312 313 314 315 323 319 309 306 311 317 322 320 310 305 303 307 304 303 304 299 293 291 296 298 297 298 298 299 297 298 299 300 304 306 307
312 313 313 313 313 313 314 314 315 314 312 314 314 316 319 312 302 301 315 322 321 316 312 309 307 303 299 302 299 298 294 295 296 298 298 297 297 299 297 295 299 298 300 303 304
312 312 311 311 311 312 313 313 314 313 313 311 314 316 315 309 295 307 320 322 319 314 310 306 303 298 296 294 298 293 296 296 297 298 296 295 297 295 296 297 300 301 301 302 302
312 311 311 311 310 310 311 311 312 313 313 310 313 316 309 300 300 312 322 320 312 309 306 304 299 298 294 295 296 293 294 295 296 296 296 296 294 294 294 298 300 300 300 300 301
312 311 310 309 309 309 310 311 311 312 313 312 313 316 306 296 310 314 310 308 307 306 303 303 301 300 296 294 292 294 293 294 294 293 294 291 293 292 296 298 297 299 299 301 302
312 311 310 309 309 309 310 310 309 310 311 311 313 312 305 302 312 312 310 306 306 306 301 303 302 298 297 293 295 293 289 291 291 292 292 294 292 290 296 297 298 299 301 302 303
312 311 308 309 309 309 310 309 310 311 312 310 313 308 299 311 312 307 307 304 307 307 304 305 304 299 296 296 292 289 290 288 290 293 293 293 290 295 297 299 298 299 300 301 303
311 309 308 308 309 309 307 307 308 311 313 312 308 304 298 313 303 305 306 302 304 304 304 303 301 296 294 291 289 289 286 286 288 293 292 292 291 297 300 299 298 300 301 301 303
308 309 309 310 309 306 307 310 312 313 310 306 306 298 302 298 301 303 307 305 301 300 298 297 296 292 291 290 286 283 283 286 286 290 291 291 292 297 299 299 300 301 303 304 306
310 309 309 307 306 305 304 303 299 296 301 293 292 297 298 301 304 301 304 302 300 296 290 293 290 286 287 287 287 286 285 284 288 291 290 292 292 296 299 299 300 299 300 303 306
309 309 308 307 306 304 303 297 296 298 288 297 299 298 301 302 295 299 304 295 294 289 291 290 286 288 290 289 288 287 285 287 290 291 291 293 292 296 296 298 299 300 300 303 307
308 309 308 306 306 304 300 298 304 301 288 290 295 295 296 299 294 295 299 296 291 288 288 287 287 291 289 288 287 288 287 286 286 291 294 292 292 292 295 298 298 301 301 301 302
309 308 307 307 301 301 298 304 306 304 286 284 289 293 297 298 292 302 302 296 292 288 289 289 290 289 288 287 289 285 291 289 289 288 285 292 283 291 292 294 296 299 299 300 300
309 307 308 306 300 298 301 306 306 301 275 288 291 301 298 293 294 295 302 297 291 290 290 287 289 288 288 288 291 289 292 291 290 287 286 288 283 290 292 291 294 296 298 299 299
308 308 305 303 303 302 305 305 301 287 275 285 291 291 292 294 293 296 296 300 297 291 291 290 293 292 292 293 293 294 291 291 291 287 281 287 285 289 290 291 293 296 297 298 298
307 307 305 305 299 304 303 298 287 280 286 285 288 291 290 289 290 291 290 290 289 285 285 288 290 293 294 291 294 292 287 283 282 279 282 287 284 289 292 294 294 294 295 296 297
308 304 303 304 305 304 300 291 279 283 285 290 290 291 287 289 289 290 289 289 290 290 286 285 284 291 295 293 290 289 289 283 278 281 283 287 283 290 293 295 294 293 294 295 295
302 303 303 302 303 302 295 283 283 285 289 289 289 287 286 289 290 289 290 290 292 292 286 286 286 293 295 297 295 290 287 291 285 285 282 288 289 292 293 291 291 290 292 292 294
301 300 301 302 303 299 294 284 288 291 292 291 285 288 285 287 288 288 289 292 292 294 296 290 286 292 295 296 297 293 295 285 286 280 279 285 285 286 287 288 290 289 290 291 293
300 301 304 303 303 299 288 289 291 295 295 291 288 287 288 287 289 288 288 292 295 295 296 294 290 289 293 292 291 291 289 289 288 286 283 281 286 292 289 289 289 290 291 292 293
300 295 307 306 297 294 290 292 294 293 296 294 293 291 290 290 289 290 289 292 297 298 292 294 290 285 288 293 294 294 290 289 285 282 286 285 286 295 293 293 292 292 292 294 295
298 297 306 307 292 291 292 292 293 293 292 293 292 294 294 291 288 291 292 296 298 296 293 294 289 284 284 288 291 290 290 289 288 287 285 283 287 295 294 292 293 292 295 297 297
299 295 301 299 294 293 291 291 291 295 293 293 293 294 293 290 292 290 291 295 297 297 297 296 290 287 284 286 290 287 288 288 288 285 286 286 288 291 293 292 294 296 297 297 297
298 293 292 293 293 293 293 291 290 290 295 295 292 291 291 289 289 289 291 292 295 295 295 293 287 287 288 289 289 288 288 288 285 288 285 287 288 293 296 295 296 298 298 295 295
297 295 293 292 290 293 292 290 290 291 292 292 291 291 292 290 290 288 290 290 290 292 292 292 288 287 284 288 288 286 288 288 288 288 288 288 288 296 299 299 298 297 296 294 295
298 297 296 290 292 292 291 290 290 292 293 293 292 292 291 292 294 295 295 294 293 291 290 289 289 286 283 285 285 283 287 288 289 291 291 287 292 295 294 295 297 298 297 296 296
Wind_Speed
12 12 13 13 9 9 9 10 6 4 4 7 4 5 5 11 9 4 5 2 5 11 6 6 6 6 5 4 3 1 3 4 2 5 5 3 1 2 1 7 5 5 9 11 17
14 15 14 10 8 8 9 7 7 5 3 5 6 4 5 16 4 4 1 6 10 11 9 10 9 7 5 4 3 3 4 2 3 2 1 1 3 6 6 7 12 13 13 12 11
12 11 10 8 8 9 9 8 7 5 2 4 5 2 16 7 5 1 4 10 11 6 6 6 8 3 5 3 2 1 1 3 3 1 4 4 9 3 8 9 10 11 14 14 15
11 8 7 5 7 5 8 7 6 5 4 0 4 4 12 3 5 2 10 11 11 8 8 10 6 4 4 4 3 3 3 1 1 0 4 7 8 9 12 18 15 16 16 17 17
11 8 6 6 4 4 4 1 1 5 5 2 3 3 5 1 4 1 13 16 9 5 7 8 7 5 7 6 5 2 3 2 4 5 9 10 14 16 20 19 16 16 15 15 15
12 7 4 3 3 0 3 5 5 7 9 4 5 6 2 7 1 8 13 10 8 8 6 3 5 7 9 4 2 3 2 4 5 5 6 7 9 4 6 3 10 12 13 13 13
11 7 5 4 2 2 5 7 5 8 9 2 5 2 4 7 3 12 10 7 6 10 8 6 8 3 6 7 3 2 3 3 2 1 1 6 9 11 9 5 10 11 14 17 19
9 8 2 3 4 5 5 3 6 8 12 2 3 2 4 3 4 15 17 14 12 13 12 9 10 10 3 7 3 0 2 3 3 2 2 5 6 3 5 13 16 17 17 16 15
3 7 2 3 6 5 3 3 5 11 12 5 4 2 6 1 9 9 13 13 13 11 9 7 5 5 4 4 3 2 1 3 1 2 2 2 12 4 13 13 16 16 14 13 14
14 7 9 9 7 5 4 8 13 19 15 9 5 3 4 6 5 11 13 10 6 10 6 4 4 3 3 2 1 3 0 3 5 2 7 12 19 15 12 11 10 10 10 9 10
15 13 13 8 7 7 4 2 7 6 11 5 2 4 10 3 9 10 8 12 5 4 3 3 3 6 7 5 7 6 1 4 7 3 7 6 16 17 11 5 7 8 9 10 10
13 11 10 10 11 9 4 4 4 4 11 13 15 16 5 5 15 10 1 3 2 6 3 4 5 6 8 6 4 3 3 5 6 4 7 14 19 14 4 1 5 8 8 12 13
12 10 10 8 8 10 12 6 5 1 7 8 7 8 4 5 9 7 2 4 6 5 5 4 6 9 4 5 4 6 5 2 3 8 6 12 10 5 4 4 2 6 6 9 12
12 11 5 1 3 3 4 5 4 3 5 8 6 6 2 4 7 5 5 2 2 6 4 5 6 5 5 4 6 3 5 3 5 8 5 5 7 6 3 3 3 8 9 9 12
12 9 17 12 2 4 3 4 5 1 7 8 4 6 6 3 12 4 4 1 4 7 4 3 8 7 5 3 8 1 2 5 8 8 8 3 4 3 2 1 6 9 9 9 10
14 11 3 5 3 1 1 2 2 2 9 2 2 6 7 6 4 3 2 4 2 3 1 3 1 3 1 5 10 3 5 6 3 1 4 4 6 2 3 7 10 8 6 8 9
7 7 5 1 3 0 2 2 1 8 2 5 4 4 5 4 5 2 2 3 1 4 2 3 4 3 3 4 4 3 3 3 1 2 4 6 6 7 3 8 6 6 8 8 8
12 1 2 1 2 4 3 2 11 4 6 2 5 9 5 1 3 2 3 4 2 1 4 1 2 5 7 2 2 1 1 3 5 3 6 4 5 2 3 4 6 7 7 6 7
3 1 0 3 3 5 3 9 5 3 3 6 5 5 3 3 1 2 2 3 2 1 3 1 0 2 4 2 4 4 3 1 4 5 5 2 2 5 3 5 5 5 6 7 7
1 1 3 5 5 3 3 11 5 2 3 1 3 3 4 3 2 2 1 2 2 3 3 2 1 1 4 3 5 3 5 3 4 4 5 2 2 4 5 5 4 2 2 3 2
2 2 5 3 5 7 7 8 6 1 1 1 3 5 4 2 2 2 2 3 3 4 1 1 2 3 2 6 4 5 4 4 3 3 4 5 2 1 3 4 3 2 4 4 5
2 5 7 3 5 3 4 3 1 2 1 2 2 3 3 3 3 3 3 1 5 5 2 2 2 3 3 2 2 4 3 2 4 4 3 4 2 3 2 3 5 5 7 7 6
4 3 3 3 5 5 3 4 4 2 3 2 2 1 1 2 3 1 1 2 5 4 2 4 2 3 3 2 3 5 5 2 4 2 6 3 3 4 5 5 7 10 10 9 7
2 4 4 5 1 2 3 6 3 2 4 3 3 1 2 3 3 3 2 2 5 3 2 4 2 6 4 3 2 5 6 5 6 4 1 8 3 7 9 10 12 12 11 9 8
4 3 1 4 7 7 4 4 4 5 5 6 4 6 3 2 2 2 1 0 1 1 2 3 5 3 11 14 10 10 11 8 9 8 7 3 7 6 13 16 15 12 10 9 9
2 3 2 2 3 3 5 5 5 3 5 4 3 2 3 2 1 1 1 2 0 2 3 1 3 3 5 1 9 13 13 13 13 11 12 13 13 10 8 10 11 12 12 11 10
1 2 4 1 3 1 2 2 3 1 2 1 2 3 2 3 4 6 5 3 2 2 4 3 3 3 5 4 8 11 15 18 9 8 9 9 4 7 9 12 14 13 12 12 11
Wind_Direction
304 295 287 277 282 294 307 284 266 301 345 338 337 2 5 136 129 176 229 59 169 146 136 123 117 105 92 85 50 276 231 209 148 173 104 107 0 110 282 279 279 276 280 301 312
295 288 288 278 280 295 295 295 269 281 337 352 342 8 159 139 105 232 32 180 159 140 152 149 138 134 90 89 54 230 252 117 51 90 108 312 316 332 298 269 270 274 272 286 302
296 290 290 288 293 298 296 282 241 227 277 38 357 41 131 131 100 337 188 164 143 144 132 124 123 103 103 117 78 123 2 117 90 38 341 314 294 290 286 276 262 272 288 296 299
297 276 281 274 281 295 289 254 227 241 266 11 18 200 135 6 165 256 183 164 124 133 134 134 133 116 112 127 90 143 100 61 161 317 320 302 312 277 264 260 285 284 291 296 289
291 288 290 279 294 307 339 252 148 30 324 216 77 192 143 138 173 144 178 125 123 128 138 138 140 133 137 120 121 161 148 210 248 268 280 281 275 280 275 273 278 285 289 283 281
273 271 260 273 278 68 131 119 105 69 326 253 99 150 181 165 145 251 120 113 115 121 116 144 131 114 104 101 211 114 208 263 287 277 266 270 275 299 268 276 294 291 281 281 279
267 262 268 263 233 170 177 170 140 133 273 221 108 167 197 119 157 141 119 104 119 132 111 97 122 108 123 125 112 126 275 258 186 193 301 289 253 231 260 303 293 280 286 293 288
230 242 183 204 177 166 158 167 212 207 201 229 69 168 147 291 193 110 106 92 92 87 98 99 97 89 65 119 107 302 228 245 136 333 122 317 289 229 276 316 304 297 289 288 291
56 68 121 148 142 136 83 255 238 230 206 197 90 323 128 229 122 100 117 114 101 92 85 84 66 71 129 153 136 68 245 289 274 2 316 322 294 287 317 313 306 305 305 303 304
120 151 106 102 105 110 102 56 81 95 115 77 49 155 152 116 120 109 109 107 104 114 91 52 76 122 108 194 210 140 198 304 282 18 297 277 272 292 313 321 329 341 332 321 320
83 96 96 86 88 107 118 97 98 62 36 113 188 88 102 178 117 106 113 108 95 63 109 41 121 97 100 81 106 118 97 279 274 290 283 285 289 295 310 297 327 341 333 327 325
79 89 103 78 62 85 80 84 84 106 62 21 74 72 61 121 114 93 75 105 100 103 110 110 99 114 117 128 137 169 245 271 277 242 281 302 295 307 228 259 330 332 329 333 333
56 59 111 91 46 54 75 78 105 125 80 35 26 54 46 67 97 75 50 98 102 91 65 99 113 149 143 160 214 228 252 265 271 314 266 297 280 181 166 224 276 340 340 333 337
41 49 31 248 39 334 58 55 38 338 92 23 43 32 8 89 64 24 24 59 99 112 108 87 155 190 188 204 212 281 199 244 306 333 314 359 296 248 191 267 230 347 336 339 335
21 37 63 54 97 57 45 5 333 276 75 7 44 160 218 42 138 55 3 27 107 139 196 144 168 173 209 219 186 347 289 277 294 295 309 164 251 275 268 350 337 346 332 345 342
35 35 24 41 30 57 158 307 256 218 69 76 329 140 111 78 63 110 45 51 53 120 60 102 179 240 252 192 208 324 315 293 261 266 253 225 212 218 28 340 326 333 2 6 3
345 37 44 183 120 22 348 332 154 50 251 40 81 112 91 80 82 62 87 132 172 149 96 182 189 202 216 228 156 228 336 357 250 222 263 161 231 313 27 338 355 25 7 12 20
327 252 91 327 322 162 175 229 63 42 60 138 115 97 79 80 76 124 150 120 164 334 113 38 133 185 171 278 37 145 116 307 288 295 321 182 242 50 53 349 23 13 360 31 41
331 14 290 332 197 178 205 58 56 88 120 138 150 101 95 93 133 189 56 60 43 211 81 69 24 119 204 152 156 132 209 190 276 232 259 191 178 146 4 347 357 12 11 46 40
90 285 37 337 179 203 96 97 91 48 113 75 62 15 100 77 147 198 61 73 101 194 289 90 131 156 120 189 217 276 10 240 186 299 301 220 253 306 332 324 346 358 36 84 107
54 35 9 40 215 44 56 76 94 95 343 85 87 87 70 93 67 113 88 152 206 151 173 308 3 106 198 199 183 184 219 214 287 247 299 313 52 179 247 253 211 223 130 129 96
39 50 349 293 55 13 53 80 157 78 206 126 97 101 149 168 121 126 130 223 172 170 109 33 71 253 230 134 267 250 219 249 262 163 262 297 311 107 186 160 201 150 155 168 165
52 358 1 347 65 41 55 67 48 67 44 95 101 52 174 123 125 99 140 52 162 177 161 163 183 289 185 193 179 225 182 209 213 253 236 281 69 125 133 161 178 162 176 187 199
80 32 5 60 98 49 61 30 71 57 70 41 51 126 134 72 41 114 132 142 188 211 173 187 250 259 287 341 355 241 205 194 208 221 206 243 287 180 179 191 194 201 204 216 224
12 102 38 2 29 42 49 9 24 21 15 22 80 37 20 79 70 56 4 44 137 99 136 254 268 232 261 264 247 258 259 223 205 240 246 20 246 213 197 199 206 213 223 232 230
92 149 171 114 301 353 20 26 26 3 350 17 59 12 45 93 50 88 311 221 342 145 207 185 283 312 279 299 231 251 247 249 246 249 251 261 267 243 204 199 208 213 218 228 231
66 98 297 9 114 134 41 23 30 287 125 26 330 307 327 17 304 298 261 233 175 229 197 219 280 319 278 346 310 266 247 221 215 219 227 220 254 169 193 206 217 222 220 226 230